• En España
  • Lista de países
  • Para 7 días
  • Temperatura del agua
  • Mapa Satelital
  • El tiempo en el mapa
  • Informadores
  • user-avatar
    Iniciar sesión

    Tiempo cada hora Innsbruck

    Hoy, 17 Diciembre, Domingo

    Tiempo Temperatura Precipitaciones Viento Presión Humedad
    00:00 -13°C° 0,4 mm 2 mps 589 mmHg 94%
    01:00 -14°C° 0,4 mm 2 mps 589 mmHg 94%
    02:00 -14°C° 0,4 mm 2 mps 589 mmHg 94%
    03:00 -14°C° 0,4 mm 2 mps 589 mmHg 93%
    04:00 -14°C° 0,4 mm 2 mps 589 mmHg 93%
    05:00 -14°C° 0,4 mm 2 mps 590 mmHg 93%
    06:00 -14°C° 0,4 mm 2 mps 590 mmHg 93%
    07:00 -14°C° 0,4 mm 2 mps 590 mmHg 93%
    08:00 -13°C° 0,5 mm 2 mps 591 mmHg 93%
    09:00 -13°C° 0,5 mm 2 mps 591 mmHg 92%
    10:00 -12°C° 0,5 mm 2 mps 592 mmHg 92%
    11:00 -12°C° 0,5 mm 2 mps 592 mmHg 91%
    12:00 -12°C° 0,5 mm 2 mps 592 mmHg 90%
    13:00 -10°C° 0,5 mm 2 mps 593 mmHg 89%
    14:00 -12°C° 0,2 mm 2 mps 593 mmHg 90%
    15:00 -13°C° 0,2 mm 2 mps 593 mmHg 91%
    16:00 -13°C° 0,2 mm 2 mps 592 mmHg 93%
    17:00 -14°C° 0,1 mm 2 mps 592 mmHg 93%
    18:00 -15°C° 0,1 mm 2 mps 592 mmHg 94%
    19:00 -16°C° 0,1 mm 2 mps 592 mmHg 94%
    20:00 -17°C° 0 mm 2 mps 592 mmHg 93%
    21:00 -18°C° 0 mm 2 mps 592 mmHg 93%
    22:00 -18°C° 0 mm 2 mps 592 mmHg 92%
    23:00 -19°C° 0 mm 2 mps 592 mmHg 91%

    Mañana, 18 Diciembre, Lunes

    Tiempo Temperatura Precipitaciones Viento Presión Humedad
    00:00 -19°C° 0 mm 2 mps 592 mmHg 90%
    01:00 -19°C° 0 mm 2 mps 592 mmHg 88%
    02:00 -20°C° 0 mm 2 mps 592 mmHg 87%
    03:00 -20°C° 0 mm 2 mps 592 mmHg 85%
    04:00 -20°C° 0 mm 2 mps 591 mmHg 84%
    05:00 -19°C° 0 mm 2 mps 592 mmHg 82%
    06:00 -18°C° 0 mm 2 mps 592 mmHg 80%
    07:00 -17°C° 0 mm 2 mps 592 mmHg 79%
    08:00 -16°C° 0,1 mm 2 mps 593 mmHg 80%
    09:00 -12°C° 0,1 mm 1 mps 593 mmHg 80%
    10:00 -11°C° 0,1 mm 1 mps 593 mmHg 81%
    11:00 -10°C° 0,3 mm 1 mps 593 mmHg 83%
    12:00 -9°C° 0,3 mm 1 mps 593 mmHg 86%
    13:00 -8°C° 0,3 mm 1 mps 593 mmHg 88%
    14:00 -8°C° 0,4 mm 1 mps 593 mmHg 90%
    15:00 -8°C° 0,4 mm 1 mps 593 mmHg 92%
    16:00 -8°C° 0,4 mm 1 mps 593 mmHg 94%
    17:00 -8°C° 0,5 mm 1 mps 593 mmHg 94%
    18:00 -9°C° 0,5 mm 1 mps 593 mmHg 95%
    19:00 -9°C° 0,5 mm 1 mps 594 mmHg 95%
    20:00 -9°C° 0,3 mm 1 mps 594 mmHg 95%
    21:00 -9°C° 0,3 mm 1 mps 594 mmHg 95%
    22:00 -10°C° 0,3 mm 2 mps 595 mmHg 95%
    23:00 -10°C° 0,2 mm 2 mps 595 mmHg 95%

    Pasado mañana, 19 Diciembre, Martes

    Tiempo Temperatura Precipitaciones Viento Presión Humedad
    00:00 -12°C° 0,2 mm 2 mps 595 mmHg 95%
    01:00 -10°C° 0,2 mm 1 mps 596 mmHg 95%
    02:00 -10°C° 0,2 mm 1 mps 596 mmHg 95%
    03:00 -12°C° 0,2 mm 2 mps 596 mmHg 95%
    04:00 -12°C° 0,2 mm 2 mps 596 mmHg 95%
    05:00 -12°C° 0,2 mm 2 mps 596 mmHg 95%
    06:00 -12°C° 0,2 mm 2 mps 597 mmHg 95%
    07:00 -12°C° 0,2 mm 2 mps 597 mmHg 95%
    08:00 -10°C° 0,2 mm 2 mps 598 mmHg 94%
    09:00 -10°C° 0,2 mm 2 mps 598 mmHg 94%
    10:00 -9°C° 0,2 mm 2 mps 599 mmHg 93%
    11:00 -8°C° 0,1 mm 2 mps 599 mmHg 92%
    12:00 -8°C° 0,1 mm 2 mps 600 mmHg 92%
    13:00 -7°C° 0,1 mm 2 mps 600 mmHg 91%
    14:00 -8°C° 0,1 mm 2 mps 600 mmHg 92%
    15:00 -8°C° 0,1 mm 2 mps 600 mmHg 93%
    16:00 -9°C° 0,1 mm 2 mps 599 mmHg 94%
    17:00 -10°C° 0,1 mm 2 mps 599 mmHg 94%
    18:00 -10°C° 0,1 mm 1 mps 599 mmHg 95%
    19:00 -11°C° 0,1 mm 1 mps 599 mmHg 95%
    20:00 -11°C° 0 mm 1 mps 599 mmHg 94%
    21:00 -11°C° 0 mm 1 mps 599 mmHg 92%
    22:00 -11°C° 0 mm 1 mps 599 mmHg 91%
    23:00 -12°C° 0,3 mm 2 mps 599 mmHg 91%

    20 Diciembre, Miércoles

    Tiempo Temperatura Precipitaciones Viento Presión Humedad
    00:00 -12°C° 0,3 mm 2 mps 599 mmHg 92%
    01:00 -10°C° 0,3 mm 2 mps 599 mmHg 93%
    02:00 -10°C° 1 mm 2 mps 599 mmHg 93%
    03:00 -9°C° 1 mm 2 mps 599 mmHg 94%
    04:00 -9°C° 1 mm 2 mps 599 mmHg 95%
    05:00 -9°C° 1,5 mm 2 mps 599 mmHg 95%
    06:00 -9°C° 1,5 mm 2 mps 599 mmHg 95%
    07:00 -8°C° 1,5 mm 2 mps 599 mmHg 95%
    08:00 -8°C° 1,6 mm 2 mps 599 mmHg 95%
    09:00 -7°C° 1,6 mm 2 mps 600 mmHg 94%
    10:00 -7°C° 1,6 mm 2 mps 600 mmHg 94%
    11:00 -7°C° 1,5 mm 3 mps 600 mmHg 94%
    12:00 -7°C° 1,5 mm 3 mps 600 mmHg 94%
    13:00 -6°C° 1,5 mm 3 mps 600 mmHg 94%
    14:00 -7°C° 1,1 mm 3 mps 600 mmHg 94%
    15:00 -7°C° 1,1 mm 3 mps 600 mmHg 94%
    16:00 -6°C° 1,1 mm 2 mps 600 mmHg 95%
    17:00 -6°C° 1 mm 2 mps 600 mmHg 94%
    18:00 -6°C° 1 mm 2 mps 601 mmHg 94%
    19:00 -6°C° 1 mm 2 mps 601 mmHg 94%
    20:00 -6°C° 1 mm 2 mps 601 mmHg 95%
    21:00 -5°C° 1 mm 2 mps 602 mmHg 95%
    22:00 -5°C° 1 mm 2 mps 602 mmHg 95%
    23:00 -5°C° 0,6 mm 2 mps 602 mmHg 95%

    21 Diciembre, Jueves

    Tiempo Temperatura Precipitaciones Viento Presión Humedad
    00:00 -5°C° 0,6 mm 2 mps 602 mmHg 95%
    01:00 -5°C° 0,6 mm 2 mps 602 mmHg 95%
    02:00 -5°C° 0,3 mm 2 mps 602 mmHg 95%
    03:00 -5°C° 0,3 mm 2 mps 602 mmHg 95%
    04:00 -5°C° 0,3 mm 2 mps 602 mmHg 95%
    05:00 -5°C° 0,2 mm 2 mps 602 mmHg 95%
    06:00 -5°C° 0,2 mm 2 mps 602 mmHg 95%
    07:00 -5°C° 0,2 mm 2 mps 602 mmHg 95%
    08:00 -4°C° 0,2 mm 2 mps 603 mmHg 95%
    09:00 -4°C° 0,2 mm 2 mps 603 mmHg 95%
    10:00 -3°C° 0,2 mm 2 mps 603 mmHg 95%
    11:00 -3°C° 0,1 mm 2 mps 603 mmHg 96%
    12:00 -3°C° 0,1 mm 2 mps 603 mmHg 97%
    13:00 -2°C° 0,1 mm 2 mps 603 mmHg 98%
    14:00 -3°C° 0,2 mm 2 mps 603 mmHg 97%
    15:00 -3°C° 0,2 mm 2 mps 602 mmHg 96%
    16:00 -3°C° 0,2 mm 2 mps 602 mmHg 95%
    17:00 -3°C° 0,3 mm 2 mps 602 mmHg 94%
    18:00 -3°C° 0,3 mm 2 mps 602 mmHg 94%
    19:00 -3°C° 0,3 mm 2 mps 603 mmHg 93%
    20:00 -4°C° 0,1 mm 2 mps 602 mmHg 92%
    21:00 -4°C° 0,1 mm 2 mps 602 mmHg 91%
    22:00 -4°C° 0,1 mm 2 mps 602 mmHg 90%
    23:00 -5°C° 0 mm 2 mps 601 mmHg 89%

    22 Diciembre, Viernes

    Tiempo Temperatura Precipitaciones Viento Presión Humedad
    00:00 -5°C° 0 mm 2 mps 601 mmHg 87%
    01:00 -3°C° 0 mm 1 mps 600 mmHg 86%
    02:00 -6°C° 0 mm 2 mps 600 mmHg 87%
    03:00 -6°C° 0 mm 2 mps 599 mmHg 87%
    04:00 -7°C° 0 mm 2 mps 599 mmHg 88%
    05:00 -7°C° 0 mm 2 mps 598 mmHg 89%
    06:00 -7°C° 0 mm 2 mps 598 mmHg 90%
    07:00 -7°C° 0 mm 2 mps 598 mmHg 91%
    08:00 -7°C° 0,7 mm 3 mps 598 mmHg 92%
    09:00 -6°C° 0,7 mm 3 mps 599 mmHg 93%
    10:00 -5°C° 0,7 mm 3 mps 599 mmHg 94%
    11:00 -6°C° 1,2 mm 3 mps 599 mmHg 94%
    12:00 -6°C° 1,2 mm 3 mps 599 mmHg 94%
    13:00 -7°C° 1,2 mm 4 mps 599 mmHg 94%
    14:00 -8°C° 0,9 mm 4 mps 599 mmHg 94%
    15:00 -9°C° 0,9 mm 4 mps 599 mmHg 94%
    16:00 -9°C° 0,9 mm 4 mps 599 mmHg 94%
    17:00 -10°C° 0,6 mm 4 mps 600 mmHg 94%
    18:00 -11°C° 0,6 mm 4 mps 600 mmHg 94%
    19:00 -11°C° 0,6 mm 4 mps 600 mmHg 95%
    20:00 -10°C° 0,6 mm 3 mps 601 mmHg 95%
    21:00 -12°C° 0,6 mm 3 mps 601 mmHg 95%
    22:00 -12°C° 0,6 mm 3 mps 601 mmHg 95%
    23:00 -12°C° 0,9 mm 3 mps 601 mmHg 94%
    Mostrar más